CW9193 Weather Reports


time (UTC)temp
C
wind
direction
speed
KPH
gust
KPH
rain 1hr
cm
rain 24hr
cm
rain mn
cm
humidity
%
barometer
mb
20260508013056 3 330 0.0 0.0 0.00 0.00 0.00 86 1009.2
20260508011556 3 329 0.0 0.0 0.00 0.00 0.00 85 1009.2
20260508010055 3 329 0.0 0.0 0.00 0.00 0.00 85 1009.2
20260508004554 3 326 0.0 0.0 0.00 0.00 0.00 84 1009.3
20260508003105 4 324 0.0 0.0 0.00 0.00 0.00 83 1009.2
20260508001558 4 325 0.0 0.0 0.00 0.00 0.00 82 1009.2
20260508000052 4 337 0.0 0.0 0.00 0.00 0.00 82 1009.2
20260507234553 4 297 0.0 0.0 0.00 0.00 0.00 82 1009.1
20260507233051 4 282 0.0 0.0 0.00 0.00 0.00 83 1009.2
20260507231550 3 282 0.0 0.0 0.00 0.00 0.00 83 1009.4
20260507230049 3 282 0.0 0.0 0.00 0.00 0.00 83 1009.6
20260507224602 3 283 0.0 0.0 0.00 0.00 0.00 83 1009.7
20260507223055 3 276 0.0 0.0 0.00 0.00 0.00 83 1009.7
20260507221550 3 293 0.0 0.0 0.00 0.00 0.00 82 1009.7
20260507220048 3 297 0.0 0.0 0.00 0.00 0.00 81 1009.6
20260507214551 4 290 0.0 0.0 0.00 0.00 0.00 80 1009.4
20260507213046 4 341 0.0 0.0 0.00 0.00 0.00 78 1009.4
20260507211601 5 301 0.0 0.0 0.00 0.00 0.00 77 1009.4
20260507210045 5 253 0.0 0.0 0.00 0.00 0.00 72 1009.4
20260507204547 5 245 0.0 0.0 0.00 0.00 0.00 73 1009.5
20260507203044 5 286 0.0 0.0 0.00 0.00 0.00 74 1009.7
20260507201544 5 263 0.0 0.0 0.00 0.00 0.00 73 1009.7
20260507200049 5 201 0.0 0.0 0.00 0.00 0.00 66 1009.8
20260507194543 6 186 0.0 0.0 0.00 0.00 0.00 70 1009.8
20260507193042 6 192 0.0 0.0 0.00 0.00 0.00 66 1009.7
20260507191549 5 132 0.0 0.0 0.00 0.00 0.00 69 1009.8
20260507190042 5 162 0.0 0.0 0.00 0.00 0.00 76 1009.7
20260507184542 4 147 0.0 0.0 0.00 0.00 0.00 78 1009.9
20260507183041 4 162 0.0 0.0 0.00 0.00 0.00 74 1010.1
20260507181540 5 183 0.0 0.0 0.00 0.00 0.00 68 1010.1
20260507180045 7 97 0.0 0.0 0.00 0.00 0.00 56 1009.7
20260507174541 7 350 0.0 0.0 0.00 0.00 0.00 53 1009.4
20260507173038 7 83 0.0 0.0 0.00 0.00 0.00 53 1009.6
20260507171533 7 352 0.0 0.0 0.00 0.00 0.00 57 1009.8
20260507170031 6 11 0.0 0.0 0.00 0.00 0.00 57 1010.1
20260507164530 7 126 0.0 0.0 0.00 0.00 0.00 57 1010.2
20260507163028 7 348 0.0 0.0 0.00 0.00 0.00 57 1010.3
20260507161524 6 76 0.0 0.0 0.00 0.00 0.00 59 1010.5
20260507160022 6 54 0.0 0.0 0.00 0.00 0.00 59 1010.7
20260507154520 6 324 0.0 0.0 0.00 0.00 0.00 61 1010.7
20260507153017 5 125 0.0 0.0 0.00 0.00 0.00 63 1010.6
20260507151515 5 21 0.0 0.0 0.00 0.00 0.00 65 1010.5
20260507150014 5 18 0.0 0.0 0.00 0.00 0.00 64 1010.6
20260507144512 5 107 0.0 0.0 0.00 0.00 0.00 66 1010.6
20260507143010 5 16 0.0 0.0 0.00 0.00 0.00 67 1010.5
20260507141508 5 339 0.0 0.0 0.00 0.00 0.00 68 1010.5
20260507140004 4 355 0.0 0.0 0.00 0.00 0.00 70 1010.6
20260507134502 3 4 0.0 0.0 0.00 0.00 0.00 71 1010.6
20260507133058 3 57 0.0 0.0 0.00 0.00 0.00 74 1010.6
20260507131557 2 11 0.0 0.0 0.00 0.00 0.00 75 1010.7
20260507130053 2 33 0.0 0.0 0.00 0.00 0.00 78 1010.7
20260507124556 2 17 0.0 0.0 0.00 0.00 0.00 79 1010.6
20260507123057 1 14 0.0 0.0 0.00 0.00 0.00 81 1010.7
20260507121554 1 346 0.0 0.0 0.00 0.00 0.00 83 1010.6
20260507120053 1 72 0.0 0.0 0.00 0.00 0.00 85 1010.5
20260507114553 0 74 0.0 0.0 0.00 0.00 0.00 87 1010.7
20260507113053 0 82 0.0 0.0 0.00 0.00 0.00 87 1010.5
20260507111553 0 82 0.0 0.0 0.00 0.00 0.00 87 1010.4
20260507110056 0 82 0.0 0.0 0.00 0.00 0.00 87 1010.3
20260507104554 0 82 0.0 0.0 0.00 0.00 0.00 87 1010.2
20260507103052 0 82 0.0 0.0 0.00 0.00 0.00 87 1010.0
20260507101603 0 82 0.0 0.0 0.00 0.00 0.00 87 1010.1
20260507100050 0 82 0.0 0.0 0.00 0.00 0.00 87 1010.2
20260507094558 0 83 0.0 0.0 0.00 0.00 0.00 88 1010.3
20260507093048 0 83 0.0 0.0 0.00 0.00 0.00 88 1010.4
20260507091559 0 83 0.0 0.0 0.00 0.00 0.00 88 1010.5
20260507090107 0 93 0.0 0.0 0.00 0.00 0.00 88 1010.8
20260507084547 0 94 0.0 0.0 0.00 0.00 0.00 88 1010.9
20260507083046 0 94 0.0 0.0 0.00 0.00 0.00 88 1010.9
20260507081553 0 96 0.0 0.0 0.00 0.00 0.00 88 1011.0
20260507080045 0 96 0.0 0.0 0.00 0.00 0.00 88 1011.1
20260507074545 0 96 0.0 0.0 0.00 0.00 0.00 88 1011.1
20260507073057 0 96 0.0 0.0 0.00 0.00 0.00 88 1011.2
20260507071544 0 96 0.0 0.0 0.00 0.00 0.00 88 1011.2
20260507070112 0 96 0.0 0.0 0.00 0.00 0.00 88 1011.4
20260507064547 0 96 0.0 0.0 0.00 0.00 0.00 88 1011.3
20260507063042 0 96 0.0 0.0 0.00 0.00 0.00 88 1011.5
20260507061542 0 96 0.0 0.0 0.00 0.00 0.00 88 1011.6
20260507060040 0 96 0.0 0.0 0.00 0.00 0.00 88 1011.7
20260507054546 0 96 0.0 0.0 0.00 0.00 0.00 87 1012.0
20260507053043 0 96 0.0 0.0 0.00 0.00 0.00 87 1012.0
20260507051538 0 96 0.0 0.0 0.00 0.00 0.00 87 1012.1
20260507050037 0 96 0.0 0.0 0.00 0.00 0.00 86 1012.2
20260507044544 0 96 0.0 0.0 0.00 0.00 0.00 85 1012.3
20260507043039 0 96 0.0 0.0 0.00 0.00 0.00 85 1012.4
20260507041534 0 96 0.0 0.0 0.00 0.00 0.00 84 1012.5
20260507040032 0 96 0.0 0.0 0.00 0.00 0.00 83 1012.4
20260507034533 1 96 0.0 0.0 0.00 0.00 0.00 82 1012.6
20260507033030 1 96 0.0 0.0 0.00 0.00 0.00 81 1012.7
20260507031529 1 96 0.0 0.0 0.00 0.00 0.00 81 1012.6
20260507030028 1 96 0.0 0.0 0.00 0.00 0.00 80 1012.6
20260507024529 1 96 0.0 0.0 0.00 0.00 0.00 80 1012.6
20260507023025 1 96 0.0 0.0 0.00 0.00 0.00 79 1012.7
20260507021525 2 96 0.0 0.0 0.00 0.00 0.00 79 1012.7
20260507020023 2 96 0.0 0.0 0.00 0.00 0.00 77 1012.5
20260507014526 2 96 0.0 0.0 0.00 0.00 0.00 74 1012.6